Location: Waco, TX
(31.5480°N, 97.1670°W)
Time: 17:15:14
(UTC-06:00)

ISS - Pass Details

Date: 11 January 2018
Orbit: 401 x 406 km, 51.6° (Epoch: 17 January)

Event Time Altitude Azimuth Distance (km) Brightness Sun altitude
Rises 09:37:08 0° 288° (WNW) 2,320 -0.5 21.5°
Reaches altitude 10° 09:40:58 10° 243° (WSW) 1,456 -1.1 22.1°
Maximum altitude 09:41:23 10° 235° (SW) 1,445 -1.1 22.2°
Drops below altitude 10° 09:41:49 10° 228° (SW) 1,455 -1.0 22.2°
Sets 09:45:38 0° 182° (S) 2,309 0.7 22.8°
